Hourly Data Report for October 20, 2016

All times are specified in Local Standard Time (LST). Add 1 hour to adjust for Daylight Saving Time where and when it is observed.

RESOLUTE BAY A
NUNAVUT

74°43'01.000" N
94°58'10.000" W
67.70 m
2403498
71924
YRB

Download Data

Hourly Data (October 2016)
Hourly Data Report for October 20, 2016
Temp Definition
°C
Dew Point Temp Definition
°C
Rel Hum Definition
%
Wind Dir Definition
10's deg

Wind Spd Definition
km/h
Visibility Definition
km
Stn Press Definition
kPa
Hmdx Definition


Wind Chill Definition


Weather Definition


TIME
00:00 Legend Double Dagger -19.7 -22.3 80 3 30 24.1 100.20   -32 Ice Crystals
01:00 Legend Double Dagger -15.2 -17.3 84 1 25 24.1 100.21   -25 Ice Crystals
02:00 Legend Double Dagger -17.8 -20.5 80 28 12 24.1 100.22   -25 Ice Crystals
03:00 Legend Double Dagger -16.9 -19.3 82 33 13 24.1 100.23   -25 Ice Crystals
04:00 Legend Double Dagger -14.4 -16.5 84 2 17 24.1 100.23   -23 Snow
05:00 Legend Double Dagger -14.3 -16.4 84 35 13 24.1 100.23   -21 Ice Crystals
06:00 Legend Double Dagger -14.1 -16.1 85 36 14 24.1 100.24   -22 Ice Crystals
07:00 Legend Double Dagger -14.4 -16.5 84 35 8 24.1 100.22   -20 Ice Crystals
08:00 Legend Double Dagger -15.3 -17.6 83 1 13 24.1 100.22   -23 Ice Crystals
09:00 Legend Double Dagger -15.4 -17.7 83 32 13 16.1 100.22   -23 Ice Crystals
10:00 Legend Double Dagger -15.4 -17.7 83 34 14 3.2 100.24   -23 Snow,Fog
11:00 Legend Double Dagger -15.3 -17.6 83 33 12 16.1 100.26   -22 Snow
12:00 Legend Double Dagger -16.7 -19.1 82 33 16 24.1 100.27   -25 Snow
13:00 Legend Double Dagger -15.9 -18.2 83 35 20 16.1 100.31   -25 Snow
14:00 Legend Double Dagger -16.1 -18.4 83 36 21 24.1 100.37   -26 LegendNANA
15:00 Legend Double Dagger -17.3 -19.8 81 36 21 24.1 100.40   -27 Mostly Cloudy
16:00 Legend Double Dagger -20.2 -23.0 79 35 21 24.1 100.44   -31 LegendNANA
17:00 Legend Double Dagger -21.6 -24.5 78 1 19 24.1 100.48   -32 LegendNANA
18:00 Legend Double Dagger -21.6 -24.5 78 35 9 24.1 100.49   -29 Mainly Clear
19:00 Legend Double Dagger -22.3 -25.2 78 34 13 24.1 100.53   -31 LegendNANA
20:00 Legend Double Dagger -21.3 -24.0 79 33 9 24.1 100.56   -28 LegendNANA
21:00 Legend Double Dagger -20.2 -23.0 79 24 14 24.1 100.58   -29 Snow
22:00 Legend Double Dagger -20.0 -22.8 79 35 7 24.1 100.60   -26 Snow
23:00 Legend Double Dagger -18.5 -21.0 81 26 3 24.1 100.61   -21 Snow

Notes on Data Quality.

Legend

  • E = Estimated
  • M = Missing
  • NA = Not Available
  • ‡ = Partner data that is not subject to review by the National Climate Archives
Date modified: